| time (UTC) | temp F | wind direction | speed MPH | gust MPH | rain 1hr in | rain 24hr in | rain mn in | humidity % | barometer mb |
| 20260507153546 | 61 | 303 | 27.0 | 31.0 | 0.00 | 0.00 | 0.00 | 33 | 1011.8 |
| 20260507153042 | 61 | 287 | 27.0 | 32.0 | 0.00 | 0.00 | 0.00 | 32 | 1011.5 |
| 20260507152538 | 61 | 295 | 23.0 | 30.0 | 0.00 | 0.00 | 0.00 | 33 | 1011.8 |
| 20260507152034 | 61 | 302 | 18.0 | 30.0 | 0.00 | 0.00 | 0.00 | 33 | 1011.8 |
| 20260507151530 | 61 | 286 | 24.0 | 33.0 | 0.00 | 0.00 | 0.00 | 33 | 1011.5 |
| 20260507151028 | 60 | 308 | 27.0 | 33.0 | 0.00 | 0.00 | 0.00 | 33 | 1011.6 |
| 20260507150525 | 59 | 290 | 30.0 | 34.0 | 0.00 | 0.00 | 0.00 | 35 | 1011.6 |
| 20260507150021 | 58 | 301 | 26.0 | 30.0 | 0.00 | 0.00 | 0.00 | 36 | 1011.8 |
| 20260507145516 | 58 | 284 | 27.0 | 32.0 | 0.00 | 0.00 | 0.00 | 36 | 1011.5 |
| 20260507145015 | 58 | 295 | 22.0 | 30.0 | 0.00 | 0.00 | 0.00 | 37 | 1011.8 |
| 20260507144511 | 57 | 297 | 22.0 | 27.0 | 0.00 | 0.00 | 0.00 | 38 | 1012.0 |
| 20260507144008 | 56 | 285 | 16.0 | 25.0 | 0.00 | 0.00 | 0.00 | 39 | 1011.9 |
| 20260507143505 | 55 | 289 | 19.0 | 25.0 | 0.00 | 0.00 | 0.00 | 40 | 1012.0 |
| 20260507143002 | 55 | 288 | 17.0 | 24.0 | 0.00 | 0.00 | 0.00 | 42 | 1012.0 |
| 20260507142458 | 54 | 283 | 16.0 | 21.0 | 0.00 | 0.00 | 0.00 | 41 | 1011.9 |
| 20260507141955 | 54 | 280 | 20.0 | 24.0 | 0.00 | 0.00 | 0.00 | 41 | 1011.8 |
| 20260507141451 | 54 | 290 | 20.0 | 23.0 | 0.00 | 0.00 | 0.00 | 42 | 1011.9 |
| 20260507140948 | 53 | 296 | 19.0 | 24.0 | 0.00 | 0.00 | 0.00 | 42 | 1011.9 |
| 20260507140444 | 53 | 287 | 16.0 | 22.0 | 0.00 | 0.00 | 0.00 | 44 | 1011.9 |
| 20260507135942 | 52 | 285 | 16.0 | 23.0 | 0.00 | 0.00 | 0.00 | 45 | 1012.0 |
| 20260507135438 | 52 | 278 | 19.0 | 25.0 | 0.00 | 0.00 | 0.00 | 44 | 1012.0 |
| 20260507134936 | 51 | 288 | 22.0 | 24.0 | 0.00 | 0.00 | 0.00 | 45 | 1012.2 |
| 20260507134432 | 51 | 278 | 22.0 | 23.0 | 0.00 | 0.00 | 0.00 | 46 | 1011.9 |
| 20260507133929 | 51 | 271 | 20.0 | 24.0 | 0.00 | 0.00 | 0.00 | 46 | 1011.8 |
| 20260507133425 | 50 | 290 | 24.0 | 25.0 | 0.00 | 0.00 | 0.00 | 46 | 1011.9 |
| 20260507132924 | 50 | 287 | 21.0 | 23.0 | 0.00 | 0.00 | 0.00 | 47 | 1012.1 |
| 20260507132419 | 49 | 279 | 15.0 | 21.0 | 0.00 | 0.00 | 0.00 | 48 | 1012.0 |
| 20260507131916 | 49 | 289 | 12.0 | 21.0 | 0.00 | 0.00 | 0.00 | 47 | 1011.8 |
| 20260507131413 | 49 | 296 | 17.0 | 21.0 | 0.00 | 0.00 | 0.00 | 48 | 1012.0 |
| 20260507130910 | 49 | 287 | 15.0 | 27.0 | 0.00 | 0.00 | 0.00 | 47 | 1011.8 |
| 20260507130407 | 49 | 286 | 21.0 | 27.0 | 0.00 | 0.00 | 0.00 | 47 | 1011.8 |
| 20260507125906 | 49 | 291 | 22.0 | 23.0 | 0.00 | 0.00 | 0.00 | 48 | 1011.6 |
| 20260507125403 | 48 | 287 | 21.0 | 23.0 | 0.00 | 0.00 | 0.00 | 48 | 1011.4 |
| 20260507124900 | 49 | 288 | 19.0 | 25.0 | 0.00 | 0.00 | 0.00 | 47 | 1011.5 |
| 20260507124356 | 48 | 279 | 24.0 | 27.0 | 0.00 | 0.00 | 0.00 | 47 | 1011.4 |
| 20260507123855 | 48 | 271 | 24.0 | 27.0 | 0.00 | 0.00 | 0.00 | 47 | 1011.5 |
| 20260507123351 | 48 | 280 | 18.0 | 25.0 | 0.00 | 0.00 | 0.00 | 47 | 1011.3 |
| 20260507122848 | 47 | 277 | 17.0 | 27.0 | 0.00 | 0.00 | 0.00 | 49 | 1011.4 |
| 20260507122343 | 47 | 277 | 17.0 | 27.0 | 0.00 | 0.00 | 0.00 | 49 | 1011.4 |
| 20260507121839 | 47 | 275 | 16.0 | 21.0 | 0.00 | 0.00 | 0.00 | 50 | |
| 20260507094901 | 43 | 238 | 14.0 | 21.0 | 0.00 | 0.00 | 0.00 | 52 | 1012.0 |
| 20260507094357 | 43 | 238 | 14.0 | 21.0 | 0.00 | 0.00 | 0.00 | 52 | 1012.0 |
| 20260507093854 | 43 | 244 | 19.0 | 20.0 | 0.00 | 0.00 | 0.00 | 52 | 1011.9 |
| 20260507093352 | 42 | 243 | 13.0 | 20.0 | 0.00 | 0.00 | 0.00 | 56 | 1011.9 |
| 20260507092850 | 38 | 224 | 12.0 | 15.0 | 0.00 | 0.00 | 0.00 | 65 | 1011.9 |
| 20260507092346 | 37 | 217 | 7.0 | 13.0 | 0.00 | 0.00 | 0.00 | 68 | 1012.1 |
| 20260507091843 | 37 | 219 | 8.0 | 13.0 | 0.00 | 0.00 | 0.00 | 69 | 1011.9 |
| 20260507091339 | 37 | 203 | 8.0 | 11.0 | 0.00 | 0.00 | 0.00 | 69 | 1012.0 |
| 20260507090835 | 37 | 205 | 7.0 | 11.0 | 0.00 | 0.00 | 0.00 | 68 | 1012.0 |
| 20260507090331 | 38 | 197 | 7.0 | 12.0 | 0.00 | 0.00 | 0.00 | 67 | 1012.1 |
| 20260507085828 | 38 | 213 | 6.0 | 13.0 | 0.00 | 0.00 | 0.00 | 67 | 1012.1 |
| 20260507085325 | 37 | 229 | 7.0 | 13.0 | 0.00 | 0.00 | 0.00 | 69 | 1012.4 |
| 20260507084823 | 37 | 220 | 9.0 | 13.0 | 0.00 | 0.00 | 0.00 | 71 | 1012.3 |
| 20260507084319 | 37 | 216 | 11.0 | 17.0 | 0.00 | 0.00 | 0.00 | 71 | 1012.3 |
| 20260507083816 | 36 | 214 | 6.0 | 16.0 | 0.00 | 0.00 | 0.00 | 72 | 1012.4 |
| 20260507083313 | 36 | 219 | 11.0 | 15.0 | 0.00 | 0.00 | 0.00 | 74 | 1012.4 |
| 20260507082809 | 35 | 209 | 11.0 | 13.0 | 0.00 | 0.00 | 0.00 | 75 | 1012.3 |
| 20260507082306 | 35 | 207 | 6.0 | 10.0 | 0.00 | 0.00 | 0.00 | 75 | 1012.3 |
| 20260507081802 | 36 | 207 | 6.0 | 10.0 | 0.00 | 0.00 | 0.00 | 74 | 1012.4 |
| 20260507081258 | 36 | 200 | 7.0 | 10.0 | 0.00 | 0.00 | 0.00 | 73 | 1012.7 |
| 20260507080754 | 37 | 197 | 6.0 | 10.0 | 0.00 | 0.00 | 0.00 | 72 | 1012.8 |
| 20260507080251 | 37 | 228 | 9.0 | 11.0 | 0.00 | 0.00 | 0.00 | 72 | 1013.0 |
| 20260507075746 | 37 | 210 | 7.0 | 10.0 | 0.00 | 0.00 | 0.00 | 70 | 1012.8 |
| 20260507075242 | 39 | 226 | 6.0 | 11.0 | 0.00 | 0.00 | 0.00 | 65 | 1013.0 |
| 20260507074739 | 40 | 237 | 14.0 | 16.0 | 0.00 | 0.00 | 0.00 | 63 | 1012.8 |
| 20260507074237 | 40 | 236 | 12.0 | 17.0 | 0.00 | 0.00 | 0.00 | 63 | 1012.9 |
| 20260507073733 | 40 | 235 | 13.0 | 18.0 | 0.00 | 0.00 | 0.00 | 63 | 1013.1 |
| 20260507073230 | 40 | 236 | 13.0 | 20.0 | 0.00 | 0.00 | 0.00 | 64 | 1013.2 |
| 20260507072728 | 39 | 242 | 11.0 | 20.0 | 0.00 | 0.00 | 0.00 | 66 | 1013.3 |
| 20260507072225 | 39 | 242 | 18.0 | 20.0 | 0.00 | 0.00 | 0.00 | 66 | 1013.5 |
| 20260507071723 | 39 | 238 | 20.0 | 22.0 | 0.00 | 0.00 | 0.00 | 67 | 1013.5 |
| 20260507071219 | 38 | 228 | 14.0 | 21.0 | 0.00 | 0.00 | 0.00 | 70 | 1013.6 |
| 20260507070716 | 38 | 228 | 12.0 | 19.0 | 0.00 | 0.00 | 0.00 | 71 | 1013.3 |
| 20260507070213 | 38 | 231 | 14.0 | 22.0 | 0.00 | 0.00 | 0.00 | 72 | 1013.6 |
| 20260507065709 | 38 | 231 | 14.0 | 21.0 | 0.00 | 0.00 | 0.00 | 72 | 1013.8 |
| 20260507065206 | 38 | 239 | 16.0 | 20.0 | 0.00 | 0.00 | 0.00 | 71 | 1013.7 |
| 20260507064704 | 38 | 237 | 22.0 | 23.0 | 0.00 | 0.00 | 0.00 | 71 | 1013.7 |
| 20260507064203 | 38 | 229 | 18.0 | 23.0 | 0.00 | 0.00 | 0.00 | 71 | 1013.9 |
| 20260507063659 | 38 | 219 | 19.0 | 26.0 | 0.00 | 0.00 | 0.00 | 70 | 1013.8 |
| 20260507063156 | 38 | 230 | 21.0 | 24.0 | 0.00 | 0.00 | 0.00 | 71 | 1014.3 |
| 20260507062653 | 38 | 240 | 17.0 | 23.0 | 0.00 | 0.00 | 0.00 | 71 | 1013.9 |
| 20260507062150 | 38 | 242 | 19.0 | 21.0 | 0.00 | 0.00 | 0.00 | 71 | 1013.9 |
| 20260507061648 | 38 | 231 | 15.0 | 20.0 | 0.00 | 0.00 | 0.00 | 71 | 1014.0 |
| 20260507061146 | 38 | 238 | 18.0 | 22.0 | 0.00 | 0.00 | 0.00 | 71 | 1013.9 |
| 20260507060644 | 38 | 232 | 12.0 | 20.0 | 0.00 | 0.00 | 0.00 | 71 | 1014.0 |
| 20260507060140 | 38 | 226 | 9.0 | 22.0 | 0.00 | 0.00 | 0.00 | 71 | 1014.1 |
| 20260507055635 | 38 | 226 | 15.0 | 22.0 | 0.00 | 0.01 | 0.01 | 71 | 1014.1 |
| 20260507055132 | 38 | 237 | 19.0 | 24.0 | 0.00 | 0.01 | 0.01 | 71 | 1014.3 |
| 20260507054628 | 38 | 236 | 15.0 | 24.0 | 0.00 | 0.01 | 0.01 | 71 | 1014.1 |
| 20260507054125 | 38 | 232 | 19.0 | 24.0 | 0.00 | 0.01 | 0.01 | 71 | 1014.0 |
| 20260507053623 | 39 | 228 | 21.0 | 26.0 | 0.00 | 0.01 | 0.01 | 71 | 1014.0 |
| 20260507053121 | 39 | 226 | 20.0 | 26.0 | 0.00 | 0.01 | 0.01 | 70 | 1014.1 |
| 20260507052619 | 39 | 232 | 16.0 | 25.0 | 0.00 | 0.01 | 0.01 | 70 | 1014.1 |
| 20260507052115 | 39 | 233 | 20.0 | 26.0 | 0.00 | 0.01 | 0.01 | 70 | 1014.1 |
| 20260507051613 | 39 | 238 | 17.0 | 24.0 | 0.00 | 0.01 | 0.01 | 71 | 1014.1 |
| 20260507051109 | 39 | 230 | 19.0 | 27.0 | 0.00 | 0.01 | 0.01 | 70 | 1014.3 |
| 20260507050606 | 39 | 232 | 22.0 | 24.0 | 0.00 | 0.01 | 0.01 | 71 | 1014.1 |
| 20260507045559 | 39 | 228 | 10.0 | 22.0 | 0.00 | 0.01 | 0.01 | 71 | 1014.5 |
| 20260507045056 | 39 | 223 | 12.0 | 20.0 | 0.00 | 0.01 | 0.01 | 72 | 1014.4 |
| 20260507044553 | 39 | 208 | 13.0 | 21.0 | 0.00 | 0.01 | 0.01 | 72 | 1014.5 |
| 20260507044050 | 39 | 232 | 16.0 | 22.0 | 0.00 | 0.01 | 0.01 | 72 | 1014.4 |
| 20260507043545 | 39 | 231 | 14.0 | 19.0 | 0.00 | 0.01 | 0.01 | 72 | 1014.7 |
| 20260507043043 | 39 | 231 | 13.0 | 18.0 | 0.00 | 0.01 | 0.01 | 73 | 1014.7 |
| 20260507042539 | 39 | 226 | 11.0 | 18.0 | 0.00 | 0.01 | 0.01 | 71 | 1014.6 |
| 20260507042035 | 40 | 211 | 10.0 | 16.0 | 0.00 | 0.01 | 0.01 | 70 | 1014.7 |
| 20260507041532 | 40 | 222 | 13.0 | 15.0 | 0.00 | 0.01 | 0.01 | 69 | 1014.7 |
| 20260507041029 | 40 | 231 | 7.0 | 17.0 | 0.00 | 0.01 | 0.01 | 68 | 1014.7 |
| 20260507040525 | 40 | 217 | 8.0 | 16.0 | 0.00 | 0.01 | 0.01 | 67 | 1014.7 |
| 20260507040021 | 40 | 218 | 10.0 | 14.0 | 0.00 | 0.01 | 0.01 | 68 | 1014.8 |
| 20260507035517 | 40 | 218 | 8.0 | 12.0 | 0.00 | 0.01 | 0.01 | 68 | 1014.8 |
| 20260507035014 | 40 | 211 | 9.0 | 11.0 | 0.00 | 0.01 | 0.01 | 68 | 1015.2 |
| 20260507034511 | 40 | 222 | 9.0 | 13.0 | 0.00 | 0.01 | 0.01 | 67 | 1015.2 |
| 20260507034009 | 40 | 220 | 9.0 | 13.0 | 0.00 | 0.01 | 0.01 | 67 | 1015.4 |
| 20260507033507 | 40 | 204 | 6.0 | 11.0 | 0.00 | 0.01 | 0.01 | 67 | 1015.3 |
| 20260507033004 | 40 | 219 | 8.0 | 12.0 | 0.00 | 0.01 | 0.01 | 67 | 1015.3 |
| 20260507032501 | 39 | 201 | 7.0 | 11.0 | 0.00 | 0.01 | 0.01 | 68 | 1015.3 |
| 20260507031956 | 39 | 208 | 7.0 | 8.0 | 0.00 | 0.01 | 0.01 | 67 | 1015.2 |
| 20260507031453 | 39 | 199 | 7.0 | 10.0 | 0.00 | 0.01 | 0.01 | 67 | 1015.5 |
| 20260507030950 | 39 | 200 | 6.0 | 9.0 | 0.00 | 0.01 | 0.01 | 67 | 1015.4 |
| 20260507030447 | 39 | 191 | 4.0 | 7.0 | 0.00 | 0.01 | 0.01 | 66 | 1015.3 |
| 20260507025944 | 38 | 216 | 7.0 | 9.0 | 0.00 | 0.01 | 0.01 | 67 | 1015.6 |
| 20260507025441 | 38 | 187 | 5.0 | 8.0 | 0.00 | 0.01 | 0.01 | 66 | 1015.4 |
| 20260507024939 | 39 | 185 | 4.0 | 6.0 | 0.00 | 0.01 | 0.01 | 63 | 1015.4 |
| 20260507024436 | 40 | 203 | 5.0 | 8.0 | 0.00 | 0.01 | 0.01 | 61 | 1015.4 |
| 20260507023932 | 40 | 206 | 4.0 | 6.0 | 0.00 | 0.01 | 0.01 | 61 | 1015.2 |
| 20260507023429 | 40 | 195 | 4.0 | 7.0 | 0.00 | 0.01 | 0.01 | 60 | 1015.4 |
| 20260507022926 | 40 | 211 | 4.0 | 7.0 | 0.00 | 0.01 | 0.01 | 60 | 1015.3 |
| 20260507022423 | 40 | 200 | 4.0 | 6.0 | 0.00 | 0.01 | 0.01 | 58 | 1015.3 |
| 20260507021919 | 40 | 215 | 4.0 | 6.0 | 0.00 | 0.01 | 0.01 | 56 | 1015.2 |
| 20260507021414 | 41 | 223 | 4.0 | 7.0 | 0.00 | 0.01 | 0.01 | 53 | 1015.4 |
| 20260507020912 | 42 | 231 | 6.0 | 7.0 | 0.00 | 0.01 | 0.01 | 52 | 1015.2 |
| 20260507020409 | 42 | 227 | 6.0 | 8.0 | 0.00 | 0.01 | 0.01 | 50 | 1015.1 |
| 20260507015906 | 44 | 224 | 6.0 | 10.0 | 0.00 | 0.01 | 0.01 | 48 | 1015.1 |
| 20260507015404 | 44 | 233 | 10.0 | 11.0 | 0.00 | 0.01 | 0.01 | 46 | 1015.2 |
| 20260507014901 | 44 | 246 | 6.0 | 10.0 | 0.00 | 0.01 | 0.01 | 44 | 1015.2 |
| 20260507014356 | 45 | 240 | 7.0 | 12.0 | 0.00 | 0.01 | 0.01 | 43 | 1015.2 |
| 20260507013853 | 46 | 245 | 8.0 | 13.0 | 0.00 | 0.01 | 0.01 | 42 | 1015.2 |
| 20260507013350 | 46 | 252 | 8.0 | 13.0 | 0.00 | 0.01 | 0.01 | 42 | 1015.3 |
| 20260507012848 | 46 | 255 | 11.0 | 13.0 | 0.00 | 0.01 | 0.01 | 39 | 1015.2 |
| 20260507012343 | 47 | 267 | 11.0 | 14.0 | 0.00 | 0.01 | 0.01 | 38 | 1015.2 |
| 20260507011840 | 47 | 256 | 11.0 | 16.0 | 0.00 | 0.01 | 0.01 | 39 | 1015.2 |
| 20260507011337 | 47 | 234 | 11.0 | 17.0 | 0.00 | 0.01 | 0.01 | 40 | 1014.9 |
| 20260507010832 | 47 | 250 | 9.0 | 16.0 | 0.00 | 0.01 | 0.01 | 38 | 1015.1 |
| 20260507010328 | 48 | 250 | 11.0 | 17.0 | 0.00 | 0.01 | 0.01 | 36 | 1015.2 |
| 20260507005825 | 48 | 250 | 15.0 | 18.0 | 0.00 | 0.01 | 0.01 | 35 | 1014.9 |
| 20260507005322 | 48 | 239 | 11.0 | 13.0 | 0.00 | 0.01 | 0.01 | 34 | 1014.9 |
| 20260507004818 | 49 | 246 | 11.0 | 17.0 | 0.00 | 0.01 | 0.01 | 35 | 1014.8 |
| 20260507004316 | 48 | 245 | 13.0 | 19.0 | 0.00 | 0.01 | 0.01 | 35 | 1014.9 |
| 20260507003813 | 49 | 265 | 14.0 | 19.0 | 0.00 | 0.01 | 0.01 | 35 | 1015.2 |
| 20260507003308 | 49 | 242 | 16.0 | 21.0 | 0.00 | 0.01 | 0.01 | 36 | 1015.2 |
| 20260507002803 | 49 | 251 | 17.0 | 20.0 | 0.00 | 0.01 | 0.01 | 36 | 1015.3 |
| 20260507002300 | 49 | 269 | 11.0 | 13.0 | 0.00 | 0.01 | 0.01 | 37 | 1015.2 |
| 20260507001757 | 49 | 285 | 10.0 | 21.0 | 0.00 | 0.01 | 0.01 | 36 | 1015.2 |
| 20260507001254 | 49 | 244 | 15.0 | 19.0 | 0.00 | 0.01 | 0.01 | 36 | 1015.3 |
| 20260507000750 | 49 | 264 | 14.0 | 23.0 | 0.00 | 0.01 | 0.01 | 36 | 1015.2 |
| 20260507000246 | 49 | 278 | 13.0 | 24.0 | 0.00 | 0.01 | 0.01 | 36 | 1015.3 |
| 20260506235743 | 49 | 282 | 16.0 | 19.0 | 0.00 | 0.01 | 0.01 | 36 | 1015.3 |
| 20260506235238 | 50 | 260 | 6.0 | 11.0 | 0.00 | 0.01 | 0.01 | 34 | 1015.2 |
| 20260506234736 | 50 | 254 | 20.0 | 21.0 | 0.00 | 0.01 | 0.01 | 37 | 1015.4 |
| 20260506234233 | 49 | 285 | 16.0 | 17.0 | 0.00 | 0.01 | 0.01 | 37 | 1015.5 |
| 20260506233730 | 48 | 264 | 16.0 | 19.0 | 0.00 | 0.01 | 0.01 | 38 | 1015.4 |
| 20260506233227 | 49 | 247 | 18.0 | 24.0 | 0.00 | 0.01 | 0.01 | 36 | 1015.4 |
| 20260506232724 | 48 | 278 | 12.0 | 17.0 | 0.00 | 0.01 | 0.01 | 35 | 1015.4 |
| 20260506232218 | 50 | 257 | 13.0 | 15.0 | 0.00 | 0.01 | 0.01 | 34 | 1015.4 |
| 20260506231716 | 50 | 244 | 19.0 | 22.0 | 0.00 | 0.01 | 0.01 | 35 | 1015.2 |
| 20260506231214 | 50 | 276 | 17.0 | 22.0 | 0.00 | 0.01 | 0.01 | 36 | 1015.2 |
| 20260506230710 | 50 | 250 | 20.0 | 21.0 | 0.00 | 0.01 | 0.01 | 39 | 1015.2 |
| 20260506230208 | 49 | 242 | 9.0 | 17.0 | 0.00 | 0.01 | 0.01 | 39 | 1015.2 |
| 20260506225704 | 48 | 279 | 13.0 | 19.0 | 0.00 | 0.01 | 0.01 | 40 | 1015.4 |
| 20260506225201 | 51 | 271 | 21.0 | 23.0 | 0.00 | 0.01 | 0.01 | 36 | 1015.3 |
| 20260506224657 | 49 | 241 | 13.0 | 14.0 | 0.00 | 0.01 | 0.01 | 40 | 1015.4 |
| 20260506224154 | 48 | 279 | 8.0 | 12.0 | 0.00 | 0.01 | 0.01 | 40 | 1015.5 |
| 20260506223651 | 49 | 251 | 9.0 | 16.0 | 0.00 | 0.01 | 0.01 | 37 | 1015.3 |
| 20260506223146 | 49 | 254 | 14.0 | 20.0 | 0.00 | 0.01 | 0.01 | 37 | 1015.3 |
| 20260506222643 | 49 | 244 | 5.0 | 11.0 | 0.00 | 0.01 | 0.01 | 39 | 1015.5 |
| 20260506222139 | 49 | 242 | 12.0 | 13.0 | 0.00 | 0.01 | 0.01 | 37 | 1015.6 |
| 20260506221637 | 49 | 250 | 12.0 | 17.0 | 0.00 | 0.01 | 0.01 | 40 | 1015.6 |
| 20260506221135 | 48 | 272 | 11.0 | 13.0 | 0.00 | 0.01 | 0.01 | 39 | 1015.6 |
| 20260506220632 | 48 | 251 | 10.0 | 14.0 | 0.00 | 0.01 | 0.01 | 39 | 1015.6 |
| 20260506220127 | 49 | 208 | 7.0 | 15.0 | 0.00 | 0.01 | 0.01 | 37 | 1015.7 |
| 20260506215624 | 50 | 231 | 16.0 | 20.0 | 0.00 | 0.01 | 0.01 | 37 | 1015.9 |
| 20260506215119 | 48 | 241 | 11.0 | 13.0 | 0.00 | 0.01 | 0.01 | 38 | 1015.9 |
| 20260506214616 | 48 | 285 | 11.0 | 16.0 | 0.00 | 0.01 | 0.01 | 39 | 1015.9 |
| 20260506214114 | 49 | 224 | 8.0 | 17.0 | 0.00 | 0.01 | 0.01 | 39 | 1016.0 |
| 20260506213612 | 48 | 249 | 12.0 | 17.0 | 0.00 | 0.01 | 0.01 | 40 | 1016.1 |
| 20260506213109 | 47 | 286 | 6.0 | 16.0 | 0.00 | 0.01 | 0.01 | 40 | 1016.3 |
| 20260506212606 | 47 | 289 | 12.0 | 16.0 | 0.00 | 0.01 | 0.01 | 41 | 1016.2 |
| 20260506212101 | 48 | 253 | 13.0 | 19.0 | 0.00 | 0.01 | 0.01 | 38 | 1016.3 |
| 20260506211556 | 47 | 245 | 8.0 | 15.0 | 0.00 | 0.01 | 0.01 | 38 | 1016.4 |
| 20260506211054 | 47 | 260 | 11.0 | 18.0 | 0.00 | 0.01 | 0.01 | 38 | 1016.2 |
| 20260506210550 | 47 | 283 | 10.0 | 16.0 | 0.00 | 0.01 | 0.01 | 37 | 1016.4 |
| 20260506210047 | 49 | 246 | 10.0 | 18.0 | 0.00 | 0.01 | 0.01 | 37 | 1016.3 |
| 20260506205544 | 49 | 205 | 5.0 | 11.0 | 0.00 | 0.01 | 0.01 | 39 | 1016.5 |
| 20260506205039 | 47 | 243 | 14.0 | 16.0 | 0.00 | 0.01 | 0.01 | 40 | 1016.9 |
| 20260506204537 | 46 | 302 | 16.0 | 17.0 | 0.00 | 0.01 | 0.01 | 41 | 1016.9 |
| 20260506204034 | 47 | 296 | 13.0 | 17.0 | 0.00 | 0.01 | 0.01 | 39 | 1016.9 |
| 20260506203532 | 46 | 274 | 12.0 | 13.0 | 0.00 | 0.01 | 0.01 | 40 | 1016.8 |
| 20260506203028 | 47 | 269 | 9.0 | 13.0 | 0.00 | 0.01 | 0.01 | 38 | 1017.0 |
| 20260506202526 | 47 | 284 | 8.0 | 13.0 | 0.00 | 0.01 | 0.01 | 41 | 1017.0 |
| 20260506202022 | 47 | 345 | 6.0 | 9.0 | 0.00 | 0.01 | 0.01 | 38 | 1017.0 |
| 20260506201520 | 47 | 238 | 7.0 | 12.0 | 0.00 | 0.01 | 0.01 | 38 | 1017.2 |
| 20260506201016 | 47 | 275 | 9.0 | 10.0 | 0.00 | 0.01 | 0.01 | 41 | 1017.2 |
| 20260506200512 | 46 | 271 | 9.0 | 15.0 | 0.00 | 0.01 | 0.01 | 42 | 1017.2 |
| 20260506200010 | 47 | 248 | 5.0 | 13.0 | 0.00 | 0.01 | 0.01 | 39 | 1017.3 |
| 20260506195507 | 46 | 287 | 9.0 | 13.0 | 0.00 | 0.01 | 0.01 | 41 | 1017.5 |
| 20260506195003 | 46 | 323 | 8.0 | 10.0 | 0.00 | 0.01 | 0.01 | 41 | 1017.3 |
| 20260506194500 | 45 | 275 | 11.0 | 13.0 | 0.00 | 0.01 | 0.01 | 42 | 1017.6 |
| 20260506193956 | 45 | 286 | 11.0 | 15.0 | 0.00 | 0.01 | 0.01 | 41 | 1017.6 |
| 20260506193454 | 45 | 327 | 7.0 | 10.0 | 0.00 | 0.01 | 0.01 | 41 | 1017.7 |
| 20260506192950 | 44 | 280 | 9.0 | 13.0 | 0.00 | 0.01 | 0.01 | 42 | 1017.7 |
| 20260506192448 | 44 | 259 | 4.0 | 5.0 | 0.00 | 0.01 | 0.01 | 41 | 1017.8 |
| 20260506191944 | 45 | 293 | 7.0 | 10.0 | 0.00 | 0.01 | 0.01 | 41 | 1017.7 |
| 20260506191441 | 45 | 205 | 5.0 | 8.0 | 0.00 | 0.01 | 0.01 | 40 | 1017.6 |
| 20260506190937 | 45 | 355 | 4.0 | 8.0 | 0.00 | 0.01 | 0.01 | 41 | 1017.8 |
| 20260506190434 | 44 | 339 | 2.0 | 5.0 | 0.00 | 0.01 | 0.01 | 40 | 1017.9 |
| 20260506185931 | 45 | 279 | 11.0 | 22.0 | 0.00 | 0.01 | 0.01 | 40 | 1017.7 |
| 20260506185428 | 45 | 295 | 8.0 | 10.0 | 0.00 | 0.01 | 0.01 | 41 | 1017.8 |
| 20260506184925 | 45 | 328 | 6.0 | 8.0 | 0.00 | 0.01 | 0.01 | 41 | 1017.7 |
| 20260506184422 | 45 | 305 | 6.0 | 6.0 | 0.00 | 0.01 | 0.01 | 41 | 1017.7 |
| 20260506183919 | 45 | 265 | 6.0 | 7.0 | 0.00 | 0.01 | 0.01 | 41 | 1017.6 |
| 20260506183414 | 44 | 353 | 6.0 | 8.0 | 0.00 | 0.01 | 0.01 | 40 | 1017.7 |
| 20260506182912 | 44 | 320 | 10.0 | 11.0 | 0.00 | 0.01 | 0.01 | 39 | 1017.7 |
| 20260506182409 | 47 | 37 | 2.0 | 5.0 | 0.00 | 0.01 | 0.01 | 38 | 1017.9 |
| 20260506181906 | 45 | 135 | 4.0 | 5.0 | 0.00 | 0.01 | 0.01 | 42 | 1017.9 |
| 20260506181404 | 45 | 260 | 6.0 | 9.0 | 0.00 | 0.01 | 0.01 | 41 | 1017.8 |
| 20260506180901 | 44 | 343 | 8.0 | 14.0 | 0.00 | 0.01 | 0.01 | 39 | 1017.8 |
| 20260506180357 | 45 | 347 | 4.0 | 10.0 | 0.00 | 0.01 | 0.01 | 42 | 1017.8 |
| 20260506175854 | 45 | 25 | 1.0 | 5.0 | 0.00 | 0.01 | 0.01 | 41 | 1018.0 |
| 20260506175350 | 44 | 19 | 4.0 | 8.0 | 0.00 | 0.01 | 0.01 | 43 | 1018.1 |
| 20260506174847 | 44 | 10 | 8.0 | 19.0 | 0.00 | 0.01 | 0.01 | 41 | 1018.4 |
| 20260506174345 | 44 | 49 | 6.0 | 11.0 | 0.00 | 0.01 | 0.01 | 44 | 1018.2 |
| 20260506173843 | 43 | 146 | 2.0 | 9.0 | 0.00 | 0.01 | 0.01 | 42 | 1018.5 |
| 20260506173339 | 43 | 3 | 7.0 | 12.0 | 0.00 | 0.01 | 0.01 | 43 | 1018.5 |
| 20260506172836 | 43 | 337 | 9.0 | 15.0 | 0.00 | 0.01 | 0.01 | 42 | 1018.6 |
| 20260506172333 | 43 | 354 | 11.0 | 17.0 | 0.00 | 0.01 | 0.01 | 43 | 1018.5 |
| 20260506171830 | 42 | 68 | 10.0 | 15.0 | 0.00 | 0.01 | 0.01 | 45 | 1018.2 |
| 20260506171327 | 42 | 69 | 8.0 | 9.0 | 0.00 | 0.01 | 0.01 | 44 | 1018.5 |
| 20260506170825 | 42 | 29 | 6.0 | 9.0 | 0.00 | 0.01 | 0.01 | 46 | 1018.4 |
| 20260506170320 | 42 | 13 | 8.0 | 10.0 | 0.00 | 0.01 | 0.01 | 45 | 1018.5 |
| 20260506165820 | 42 | 42 | 5.0 | 13.0 | 0.00 | 0.01 | 0.01 | 41 | 1018.5 |
| 20260506165317 | 42 | 37 | 3.0 | 12.0 | 0.00 | 0.01 | 0.01 | 42 | 1018.5 |
| 20260506164813 | 41 | 345 | 5.0 | 14.0 | 0.00 | 0.01 | 0.01 | 42 | 1018.6 |
| 20260506164310 | 41 | 34 | 9.0 | 10.0 | 0.00 | 0.01 | 0.01 | 46 | 1018.8 |
| 20260506163807 | 41 | 11 | 11.0 | 16.0 | 0.00 | 0.01 | 0.01 | 49 | 1018.6 |
| 20260506163302 | 41 | 2 | 17.0 | 17.0 | 0.00 | 0.01 | 0.01 | 46 | 1018.6 |
| 20260506162758 | 41 | 10 | 5.0 | 14.0 | 0.00 | 0.01 | 0.01 | 46 | 1018.6 |
| 20260506162256 | 40 | 357 | 13.0 | 18.0 | 0.00 | 0.01 | 0.01 | 46 | 1018.6 |
| 20260506161753 | 40 | 15 | 4.0 | 13.0 | 0.00 | 0.01 | 0.01 | 44 | 1018.6 |
| 20260506161250 | 40 | 4 | 9.0 | 17.0 | 0.00 | 0.01 | 0.01 | 49 | 1018.5 |
| 20260506160742 | 40 | 21 | 13.0 | 16.0 | 0.00 | 0.01 | 0.01 | 55 | 1018.6 |
| 20260506160238 | 40 | 12 | 10.0 | 18.0 | 0.00 | 0.01 | 0.01 | 49 | 1018.4 |
| 20260506155737 | 40 | 19 | 12.0 | 19.0 | 0.00 | 0.01 | 0.01 | 47 | 1018.4 |
| 20260506155233 | 40 | 10 | 12.0 | 14.0 | 0.00 | 0.01 | 0.01 | 51 | 1018.4 |